x

South Uist Range (03023) Weather Station

6:00 - Thu 29th Jan 2015 All times are GMT.

  • Wind
    15mph, 48mph gusts
  • Air Temp 34°f
  • Sea Pressure 975mb
  • South Uist Range
  • South Uist Range

More Historic Weather Station data

Upgrade to MSW Pro to gain access to the past 30 days of data for over 8000 Wavebouys and Weather Stations around the globe.

Join Pro

Comparision Forecast

View Surf forecast
   
jeu. 01/29 6:00 15 48 mph 975mb 34f
5:00 30 46 mph 976mb 38f
4:00 26 45 mph 977mb 37f
3:00 31 40 mph 977mb 39f
2:00 33 44 mph 978mb 40f
1:00 26 49 mph 980mb 38f
12:00 32 49 mph 981mb 38f
mer. 01/28 11:00 34 47 mph 981mb 37f
10:00 25 49 mph 982mb 35f
9:00 36 52 mph 983mb 33f
8:00 23 38 mph 983mb 37f
7:00 29 45 mph 983mb 36f
6:00 32 47 mph 984mb 36f
5:00 33 49 mph 985mb 35f
4:00 24 53 mph 986mb 35f
3:00 32 49 mph 986mb 38f
2:00 36 56 mph 987mb 39f
1:00 40 62 mph 987mb 40f
12:00 39 61 mph 987mb 41f
11:00 41 63 mph 987mb 40f
10:00 36 55 mph 987mb 37f
9:00 40 56 mph 986mb 40f
7:00 37 52 mph 986mb 38f
6:00 36 57 mph 987mb 38f
5:00 41 59 mph 988mb 38f
4:00 31 55 mph 989mb 41f
3:00 30 41 mph 990mb 44f
2:00 28 49 mph 992mb 45f
1:00 30 37 mph 994mb 47f
12:00 29 47 mph 996mb 47f
mar. 01/27 11:00 30 40 mph 998mb 48f
10:00 28 37 mph 999mb 47f
9:00 28 38 mph 1001mb 47f
8:00 29 38 mph 1003mb 47f
7:00 28 38 mph 1005mb 46f
6:00 26 37 mph 1008mb 46f
5:00 29 37 mph 1010mb 46f
4:00 24 36 mph 1011mb 46f
3:00 24 40 mph 1012mb 46f
2:00 29 36 mph 1014mb 46f
1:00 26 36 mph 1015mb 47f
12:00 24 32 mph 1016mb 46f
11:00 19 30 mph 1017mb 47f
10:00 17
mph
1018mb 47f
9:00 17
mph
1018mb 47f
8:00 18 29 mph 1019mb 46f
7:00 17
mph
1019mb 47f
6:00 18
mph
1020mb 47f
5:00 19 29 mph 1020mb 47f
4:00 21 30 mph 1020mb 47f
3:00 23 31 mph 1021mb 46f
2:00 17 34 mph 1021mb 46f
1:00 19 32 mph 1021mb 46f
12:00 22 29 mph 1021mb 45f
lun. 01/26 11:00 21
mph
1021mb 45f
10:00 19 30 mph 1022mb 45f
9:00 21
mph
1022mb 45f
8:00 17
mph
1022mb 46f
7:00 21 29 mph 1022mb 44f
6:00 22 34 mph 1022mb 44f
5:00 17 32 mph 1021mb 44f
4:00 26 39 mph 1020mb 42f
3:00 19 34 mph 1020mb 44f
2:00 22 45 mph 1019mb 45f
1:00 25 38 mph 1019mb 45f
12:00 26 38 mph 1019mb 45f
11:00 26 38 mph 1017mb 44f
10:00 23 43 mph 1017mb 43f
9:00 22 36 mph 1016mb 42f
8:00 26 59 mph 1015mb 39f
7:00 26 44 mph 1014mb 43f
6:00 34 46 mph 1013mb 44f
5:00 32 48 mph 1013mb 43f
4:00 29 55 mph 1012mb 43f
3:00 36 51 mph 1012mb 42f
2:00 31 45 mph 1012mb 44f
1:00 24 39 mph 1012mb 44f
12:00 24 33 mph 1012mb 45f
dim. 01/25 11:00 28 38 mph 1013mb 45f
10:00 22 30 mph 1013mb 45f
9:00 23 43 mph 1013mb 43f
8:00 29 41 mph 1013mb 44f
7:00 28 39 mph 1012mb 47f
6:00 26 38 mph 1011mb 46f
5:00 23 38 mph 1011mb 47f
4:00 24 31 mph 1010mb 48f
3:00 28 44 mph 1010mb 48f
2:00 32 43 mph 1009mb 49f
1:00 33 43 mph 1009mb 49f
12:00 33 44 mph 1010mb 49f
11:00 34 45 mph 1011mb 49f
10:00 30 40 mph 1011mb 49f
9:00 30 38 mph 1012mb 49f
8:00 30 39 mph 1013mb 49f